Regional Weather Roundup
Issued by NWS

Home | Current Version | Previous Version | Text Only | Print | Product List | Glossary Off
Versions: 1 2 3 4 5 6 7 8 9 10 11 12 13 14 15 16 17 18 19 20 21 22 23 24 25 26 27 28 29 30 31 32 33 34 35 36

000
ASUS45 KBOI 231510
RWRID
WEATHER ROUNDUP FOR IDAHO
NATIONAL WEATHER SERVICE BOISE ID
900 AM MDT THU OCT 23 2014

NOTE: "FAIR" INDICATES FEW OR NO CLOUDS BELOW 12000 FEET
WITH NO SIGNIFICANT WEATHER AND/OR OBSTRUCTIONS TO VISIBILITY

IDZ012-014-231600-
SOUTHWEST IDAHO


CITY           SKY/WX    TMP DP  RH WIND       PRES   REMARKS
BOISE          LGT RAIN  54  45  71 SE6       30.04R
CALDWELL       CLOUDY    52  37  58 S9        30.05R
MOUNTAIN HOME  CLOUDY    51  40  66 E6        30.06R
$$

IDZ016-017-231600-
SOUTHCENTRAL IDAHO


CITY           SKY/WX    TMP DP  RH WIND       PRES   REMARKS
BURLEY         CLOUDY    45  33  63 W5        30.07R
JEROME         CLOUDY    50  29  44 E7        30.10R
TWIN FALLS     CLOUDY    55  29  36 S14       30.09R
$$

IDZ019>023-231600-
SOUTHEAST IDAHO


CITY           SKY/WX    TMP DP  RH WIND       PRES   REMARKS
IDAHO FALLS    PTSUNNY   45  32  60 S3        30.11R
POCATELLO      SUNNY     45  31  58 N8        30.09S
REXBURG        PTSUNNY   40  33  76 CALM      30.12R
$$

IDZ006-010-011-018-031-032-231600-
CENTRAL IDAHO MOUNTAINS


CITY           SKY/WX    TMP DP  RH WIND       PRES   REMARKS
MCCALL         CLOUDY    44  41  89 S5        30.04R
HAILEY         CLOUDY    45  39  81 NW8       30.14R
STANLEY          N/A     41  38  89 SE7       30.13R
SALMON         CLOUDY   N/A N/A N/A MISG        N/A
CHALLIS        CLOUDY    47  39  74 NW3       30.06R
$$

IDZ002-004-006-007-026-231600-
NORTHERN IDAHO


CITY           SKY/WX    TMP DP  RH WIND       PRES   REMARKS
LEWISTON       LGT RAIN  56  47  71 E8        29.81R
LOWELL           N/A     49  48  97 N5        29.89F
COEUR D`ALENE  CLOUDY    52  48  87 S12       29.80R
MULLAN PASS    HVY RAIN  39  39 100 VRB6      29.86R VSB 3/4 WCI  35
$$



USA.gov is the U.S. government's official web portal to all federal, state and local government web resources and services.